contact:dominique.lefevre@mio.osupytheas.fr, maurice.libes@osupytheas.fr, didier.mallarino@osupytheas.fr
Project:EMSO http://www.emso-fr.org/EMSO-France
Depth: 2436.0 m
Title:EMSO Ligure Ouest : Data MII capteur MICROCAT
DateTime_Computer,Latitude,Longitude,Temperature,Conductivity,Pressure,DateTime_Instrument
DateTime_Computer,Latitude,Longitude,degC,S m-1,dbar,DateTime_Instrument
2023-12-19T00:00:01Z,42.805,6.029,13.3035,4.60125,2470.787,2023-12-19T02:02:31Z
2023-12-19T00:03:04Z,42.805,6.029,13.3032,4.60191,2470.787,2023-12-19T02:05:34Z
2023-12-19T00:06:07Z,42.805,6.029,13.3055,4.60158,2470.824,2023-12-19T02:08:37Z
2023-12-19T00:09:10Z,42.805,6.029,13.3061,4.60178,2470.787,2023-12-19T02:11:40Z
2023-12-19T00:12:13Z,42.805,6.029,13.3065,4.60162,2470.763,2023-12-19T02:14:43Z
2023-12-19T00:15:16Z,42.805,6.029,13.3091,4.60200,2470.763,2023-12-19T02:17:46Z
2023-12-19T00:18:19Z,42.805,6.029,13.3075,4.60167,2470.777,2023-12-19T02:20:49Z
2023-12-19T00:21:22Z,42.805,6.029,13.3094,4.60171,2470.8,2023-12-19T02:23:52Z
2023-12-19T00:24:25Z,42.805,6.029,13.3083,4.60181,2470.777,2023-12-19T02:26:55Z
2023-12-19T00:27:28Z,42.805,6.029,13.3085,4.60163,2470.74,2023-12-19T02:29:59Z
2023-12-19T00:30:32Z,42.805,6.029,13.3076,4.60197,2470.763,2023-12-19T02:33:02Z
2023-12-19T00:33:35Z,42.805,6.029,13.3092,4.60185,2470.787,2023-12-19T02:36:05Z
2023-12-19T00:36:38Z,42.805,6.029,13.3076,4.60188,2470.777,2023-12-19T02:39:08Z
2023-12-19T00:39:41Z,42.805,6.029,13.3078,4.60193,2470.787,2023-12-19T02:42:11Z
2023-12-19T00:42:44Z,42.805,6.029,13.3058,4.60200,2470.787,2023-12-19T02:45:14Z
2023-12-19T00:45:47Z,42.805,6.029,13.3078,4.60213,2470.763,2023-12-19T02:48:17Z
2023-12-19T00:48:50Z,42.805,6.029,13.3097,4.60198,2470.8,2023-12-19T02:51:20Z
2023-12-19T00:51:53Z,42.805,6.029,13.3100,4.60223,2470.763,2023-12-19T02:54:23Z
2023-12-19T00:54:56Z,42.805,6.029,13.3063,4.60211,2470.787,2023-12-19T02:57:26Z
2023-12-19T00:57:59Z,42.805,6.029,13.3063,4.60185,2470.777,2023-12-19T03:00:29Z
2023-12-19T01:01:02Z,42.805,6.029,13.3071,4.60218,2470.777,2023-12-19T03:03:32Z
2023-12-19T01:04:05Z,42.805,6.029,13.3067,4.60183,2470.8,2023-12-19T03:06:36Z
2023-12-19T01:07:08Z,42.805,6.029,13.3070,4.60158,2470.787,2023-12-19T03:09:39Z
2023-12-19T01:10:12Z,42.805,6.029,13.3067,4.60178,2470.777,2023-12-19T03:12:42Z
2023-12-19T01:13:15Z,42.805,6.029,13.3063,4.60182,2470.787,2023-12-19T03:15:45Z
2023-12-19T01:16:18Z,42.805,6.029,13.3048,4.60161,2470.787,2023-12-19T03:18:48Z
2023-12-19T01:19:21Z,42.805,6.029,13.3054,4.60162,2470.8,2023-12-19T03:21:51Z
2023-12-19T01:22:24Z,42.805,6.029,13.3048,4.60180,2470.787,2023-12-19T03:24:54Z
2023-12-19T01:25:27Z,42.805,6.029,13.3088,4.60206,2470.763,2023-12-19T03:27:57Z
2023-12-19T01:28:30Z,42.805,6.029,13.3048,4.60173,2470.754,2023-12-19T03:31:00Z
2023-12-19T01:31:33Z,42.805,6.029,13.3047,4.60149,2470.74,2023-12-19T03:34:03Z
2023-12-19T01:34:36Z,42.805,6.029,13.3051,4.60183,2470.787,2023-12-19T03:37:06Z
2023-12-19T01:37:39Z,42.805,6.029,13.3064,4.60195,2470.787,2023-12-19T03:40:09Z
2023-12-19T01:40:42Z,42.805,6.029,13.3060,4.60218,2470.74,2023-12-19T03:43:13Z
2023-12-19T01:43:45Z,42.805,6.029,13.3057,4.60192,2470.763,2023-12-19T03:46:16Z
2023-12-19T01:46:49Z,42.805,6.029,13.3056,4.60193,2470.777,2023-12-19T03:49:19Z
2023-12-19T01:49:52Z,42.805,6.029,13.3058,4.60157,2470.8,2023-12-19T03:52:22Z
2023-12-19T01:52:55Z,42.805,6.029,13.3050,4.60163,2470.777,2023-12-19T03:55:25Z
2023-12-19T01:55:58Z,42.805,6.029,13.3044,4.60173,2470.777,2023-12-19T03:58:28Z
2023-12-19T01:59:01Z,42.805,6.029,13.3046,4.60180,2470.754,2023-12-19T04:01:31Z
2023-12-19T02:02:04Z,42.805,6.029,13.3067,4.60178,2470.787,2023-12-19T04:04:34Z
2023-12-19T02:05:07Z,42.805,6.029,13.3041,4.60147,2470.777,2023-12-19T04:07:37Z
2023-12-19T02:08:10Z,42.805,6.029,13.3053,4.60188,2470.717,2023-12-19T04:10:40Z
2023-12-19T02:11:13Z,42.805,6.029,13.3050,4.60191,2470.787,2023-12-19T04:13:43Z
2023-12-19T02:14:16Z,42.805,6.029,13.3046,4.60172,2470.763,2023-12-19T04:16:46Z
2023-12-19T02:17:19Z,42.805,6.029,13.3058,4.60190,2470.74,2023-12-19T04:19:50Z
2023-12-19T02:20:23Z,42.805,6.029,13.3043,4.60150,2470.763,2023-12-19T04:22:53Z
2023-12-19T02:23:26Z,42.805,6.029,13.3043,4.60175,2470.777,2023-12-19T04:25:56Z
2023-12-19T02:26:29Z,42.805,6.029,13.3061,4.60173,2470.763,2023-12-19T04:28:59Z
2023-12-19T02:29:32Z,42.805,6.029,13.3046,4.60151,2470.74,2023-12-19T04:32:02Z
2023-12-19T02:32:35Z,42.805,6.029,13.3042,4.60155,2470.754,2023-12-19T04:35:05Z
2023-12-19T02:35:38Z,42.805,6.029,13.3048,4.60155,2470.74,2023-12-19T04:38:08Z
2023-12-19T02:38:41Z,42.805,6.029,13.3047,4.60151,2470.754,2023-12-19T04:41:11Z
2023-12-19T02:41:44Z,42.805,6.029,13.3051,4.60147,2470.754,2023-12-19T04:44:14Z
2023-12-19T02:44:47Z,42.805,6.029,13.3039,4.60135,2470.754,2023-12-19T04:47:17Z
2023-12-19T02:47:50Z,42.805,6.029,13.3042,4.60151,2470.74,2023-12-19T04:50:20Z
2023-12-19T02:50:53Z,42.805,6.029,13.3039,4.60144,2470.754,2023-12-19T04:53:23Z
2023-12-19T02:53:56Z,42.805,6.029,13.3046,4.60152,2470.74,2023-12-19T04:56:27Z
2023-12-19T02:57:00Z,42.805,6.029,13.3046,4.60134,2470.717,2023-12-19T04:59:30Z
2023-12-19T03:00:03Z,42.805,6.029,13.3040,4.60132,2470.717,2023-12-19T05:02:33Z
2023-12-19T03:03:06Z,42.805,6.029,13.3045,4.60140,2470.73,2023-12-19T05:05:36Z
2023-12-19T03:06:09Z,42.805,6.029,13.3044,4.60132,2470.74,2023-12-19T05:08:39Z
2023-12-19T03:09:12Z,42.805,6.029,13.3040,4.60139,2470.763,2023-12-19T05:11:42Z
2023-12-19T03:12:15Z,42.805,6.029,13.3043,4.60137,2470.74,2023-12-19T05:14:45Z
2023-12-19T03:15:18Z,42.805,6.029,13.3050,4.60160,2470.777,2023-12-19T05:17:48Z
2023-12-19T03:18:21Z,42.805,6.029,13.3048,4.60170,2470.754,2023-12-19T05:20:51Z
2023-12-19T03:21:24Z,42.805,6.029,13.3042,4.60143,2470.74,2023-12-19T05:23:54Z
2023-12-19T03:24:27Z,42.805,6.029,13.3043,4.60158,2470.74,2023-12-19T05:26:57Z
2023-12-19T03:27:30Z,42.805,6.029,13.3058,4.60166,2470.717,2023-12-19T05:30:00Z
2023-12-19T03:30:33Z,42.805,6.029,13.3055,4.60173,2470.754,2023-12-19T05:33:04Z
2023-12-19T03:33:36Z,42.805,6.029,13.3065,4.60156,2470.74,2023-12-19T05:36:07Z
2023-12-19T03:36:40Z,42.805,6.029,13.3058,4.60155,2470.73,2023-12-19T05:39:10Z
2023-12-19T03:39:43Z,42.805,6.029,13.3040,4.60152,2470.73,2023-12-19T05:42:13Z
2023-12-19T03:42:46Z,42.805,6.029,13.3050,4.60163,2470.717,2023-12-19T05:45:16Z
2023-12-19T03:45:49Z,42.805,6.029,13.3070,4.60174,2470.74,2023-12-19T05:48:19Z
2023-12-19T03:48:52Z,42.805,6.029,13.3078,4.60179,2470.74,2023-12-19T05:51:22Z
2023-12-19T03:51:55Z,42.805,6.029,13.3076,4.60170,2470.717,2023-12-19T05:54:25Z
2023-12-19T03:54:58Z,42.805,6.029,13.3084,4.60170,2470.717,2023-12-19T05:57:28Z
2023-12-19T03:58:01Z,42.805,6.029,13.3071,4.60145,2470.74,2023-12-19T06:00:31Z
2023-12-19T04:01:04Z,42.805,6.029,13.3048,4.60175,2470.717,2023-12-19T06:03:34Z
2023-12-19T04:04:07Z,42.805,6.029,13.3061,4.60167,2470.67,2023-12-19T06:06:37Z
2023-12-19T04:07:10Z,42.805,6.029,13.3078,4.60172,2470.717,2023-12-19T06:09:41Z
2023-12-19T04:10:13Z,42.805,6.029,13.3079,4.60183,2470.717,2023-12-19T06:12:44Z
2023-12-19T04:13:17Z,42.805,6.029,13.3093,4.60170,2470.717,2023-12-19T06:15:47Z
2023-12-19T04:16:20Z,42.805,6.029,13.3073,4.60218,2470.717,2023-12-19T06:18:50Z
2023-12-19T04:19:23Z,42.805,6.029,13.3076,4.60196,2470.73,2023-12-19T06:21:53Z
2023-12-19T04:22:26Z,42.805,6.029,13.3104,4.60146,2470.73,2023-12-19T06:24:56Z
2023-12-19T04:25:29Z,42.805,6.029,13.3091,4.60230,2470.67,2023-12-19T06:27:59Z
2023-12-19T04:28:32Z,42.805,6.029,13.3091,4.60214,2470.717,2023-12-19T06:31:02Z
2023-12-19T04:31:35Z,42.805,6.029,13.3100,4.60192,2470.73,2023-12-19T06:34:05Z
2023-12-19T04:34:38Z,42.805,6.029,13.3086,4.60197,2470.703,2023-12-19T06:37:08Z
2023-12-19T04:37:41Z,42.805,6.029,13.3096,4.60179,2470.693,2023-12-19T06:40:11Z
2023-12-19T04:40:44Z,42.805,6.029,13.3099,4.60290,2470.73,2023-12-19T06:43:14Z
2023-12-19T04:43:47Z,42.805,6.029,13.3103,4.60225,2470.717,2023-12-19T06:46:18Z
2023-12-19T04:46:50Z,42.805,6.029,13.3085,4.60187,2470.693,2023-12-19T06:49:21Z
2023-12-19T04:49:54Z,42.805,6.029,13.3090,4.60167,2470.693,2023-12-19T06:52:24Z
2023-12-19T04:52:57Z,42.805,6.029,13.3098,4.60240,2470.707,2023-12-19T06:55:27Z
2023-12-19T04:56:00Z,42.805,6.029,13.3102,4.60173,2470.693,2023-12-19T06:58:30Z
2023-12-19T04:59:03Z,42.805,6.029,13.3124,4.60175,2470.73,2023-12-19T07:01:33Z
2023-12-19T05:02:06Z,42.805,6.029,13.3089,4.60178,2470.717,2023-12-19T07:04:36Z
2023-12-19T05:05:09Z,42.805,6.029,13.3084,4.60160,2470.717,2023-12-19T07:07:39Z
2023-12-19T05:08:12Z,42.805,6.029,13.3082,4.60175,2470.707,2023-12-19T07:10:42Z
2023-12-19T05:11:15Z,42.805,6.029,13.3089,4.60148,2470.717,2023-12-19T07:13:45Z
2023-12-19T05:14:18Z,42.805,6.029,13.3073,4.60233,2470.693,2023-12-19T07:16:48Z
2023-12-19T05:17:21Z,42.805,6.029,13.3065,4.60170,2470.67,2023-12-19T07:19:51Z
2023-12-19T05:20:24Z,42.805,6.029,13.3084,4.60155,2470.707,2023-12-19T07:22:55Z
2023-12-19T05:23:27Z,42.805,6.029,13.3063,4.60170,2470.693,2023-12-19T07:25:58Z
2023-12-19T05:26:31Z,42.805,6.029,13.3078,4.60135,2470.67,2023-12-19T07:29:01Z
2023-12-19T05:29:34Z,42.805,6.029,13.3065,4.60165,2470.693,2023-12-19T07:32:04Z
2023-12-19T05:32:37Z,42.805,6.029,13.3092,4.60180,2470.656,2023-12-19T07:35:07Z
2023-12-19T05:35:40Z,42.805,6.029,13.3109,4.60193,2470.684,2023-12-19T07:38:10Z
2023-12-19T05:38:43Z,42.805,6.029,13.3106,4.60210,2470.693,2023-12-19T07:41:13Z
2023-12-19T05:41:46Z,42.805,6.029,13.3101,4.60174,2470.684,2023-12-19T07:44:16Z
2023-12-19T05:44:49Z,42.805,6.029,13.3115,4.60209,2470.67,2023-12-19T07:47:19Z
2023-12-19T05:47:52Z,42.805,6.029,13.3106,4.60173,2470.717,2023-12-19T07:50:22Z
2023-12-19T05:50:55Z,42.805,6.029,13.3102,4.60163,2470.646,2023-12-19T07:53:25Z
2023-12-19T05:53:58Z,42.805,6.029,13.3085,4.60147,2470.67,2023-12-19T07:56:28Z
2023-12-19T05:57:01Z,42.805,6.029,13.3096,4.60159,2470.717,2023-12-19T07:59:32Z
2023-12-19T06:00:04Z,42.805,6.029,13.3069,4.60153,2470.67,2023-12-19T08:02:35Z
2023-12-19T06:03:08Z,42.805,6.029,13.3098,4.60157,2470.67,2023-12-19T08:05:38Z
2023-12-19T06:06:11Z,42.805,6.029,13.3076,4.60169,2470.67,2023-12-19T08:08:41Z
2023-12-19T06:09:14Z,42.805,6.029,13.3085,4.60179,2470.707,2023-12-19T08:11:44Z
2023-12-19T06:12:17Z,42.805,6.029,13.3066,4.60146,2470.67,2023-12-19T08:14:47Z
2023-12-19T06:15:20Z,42.805,6.029,13.3082,4.60143,2470.67,2023-12-19T08:17:50Z
2023-12-19T06:18:23Z,42.805,6.029,13.3062,4.60152,2470.684,2023-12-19T08:20:53Z
2023-12-19T06:21:26Z,42.805,6.029,13.3130,4.60140,2470.67,2023-12-19T08:23:56Z
2023-12-19T06:24:29Z,42.805,6.029,13.3085,4.60142,2470.684,2023-12-19T08:26:59Z
2023-12-19T06:27:32Z,42.805,6.029,13.3079,4.60163,2470.684,2023-12-19T08:30:02Z
2023-12-19T06:30:35Z,42.805,6.029,13.3089,4.60144,2470.707,2023-12-19T08:33:05Z
2023-12-19T06:33:38Z,42.805,6.029,13.3106,4.60155,2470.684,2023-12-19T08:36:08Z
2023-12-19T06:36:41Z,42.805,6.029,13.3081,4.60144,2470.693,2023-12-19T08:39:12Z
2023-12-19T06:39:45Z,42.805,6.029,13.3084,4.60148,2470.684,2023-12-19T08:42:15Z
2023-12-19T06:42:48Z,42.805,6.029,13.3080,4.60155,2470.693,2023-12-19T08:45:18Z
2023-12-19T06:45:51Z,42.805,6.029,13.3078,4.60180,2470.684,2023-12-19T08:48:21Z
2023-12-19T06:48:54Z,42.805,6.029,13.3083,4.60163,2470.707,2023-12-19T08:51:24Z
2023-12-19T06:51:57Z,42.805,6.029,13.3095,4.60162,2470.693,2023-12-19T08:54:27Z
2023-12-19T06:55:00Z,42.805,6.029,13.3086,4.60163,2470.707,2023-12-19T08:57:30Z
2023-12-19T06:58:03Z,42.805,6.029,13.3105,4.60143,2470.707,2023-12-19T09:00:33Z
2023-12-19T07:01:06Z,42.805,6.029,13.3079,4.60141,2470.693,2023-12-19T09:03:36Z
2023-12-19T07:04:09Z,42.805,6.029,13.3111,4.60150,2470.684,2023-12-19T09:06:39Z
2023-12-19T07:07:12Z,42.805,6.029,13.3076,4.60150,2470.693,2023-12-19T09:09:42Z
2023-12-19T07:10:15Z,42.805,6.029,13.3063,4.60137,2470.693,2023-12-19T09:12:45Z
2023-12-19T07:13:18Z,42.805,6.029,13.3055,4.60128,2470.717,2023-12-19T09:15:49Z
2023-12-19T07:16:22Z,42.805,6.029,13.3085,4.60133,2470.73,2023-12-19T09:18:52Z
2023-12-19T07:19:25Z,42.805,6.029,13.3077,4.60142,2470.73,2023-12-19T09:21:55Z
2023-12-19T07:22:28Z,42.805,6.029,13.3073,4.60137,2470.73,2023-12-19T09:24:58Z
2023-12-19T07:25:31Z,42.805,6.029,13.3074,4.60143,2470.693,2023-12-19T09:28:01Z
2023-12-19T07:28:34Z,42.805,6.029,13.3074,4.60143,2470.73,2023-12-19T09:31:04Z
2023-12-19T07:31:35Z,42.805,6.029,13.3070,4.60156,2470.693,2023-12-19T09:34:06Z
2023-12-19T07:34:39Z,42.805,6.029,13.3081,4.60151,2470.717,2023-12-19T09:37:09Z
2023-12-19T07:37:42Z,42.805,6.029,13.3093,4.60135,2470.717,2023-12-19T09:40:12Z
2023-12-19T07:40:45Z,42.805,6.029,13.3070,4.60142,2470.754,2023-12-19T09:43:15Z
2023-12-19T07:43:48Z,42.805,6.029,13.3081,4.60140,2470.73,2023-12-19T09:46:18Z
2023-12-19T07:46:51Z,42.805,6.029,13.3083,4.60141,2470.693,2023-12-19T09:49:21Z
2023-12-19T07:49:54Z,42.805,6.029,13.3082,4.60130,2470.73,2023-12-19T09:52:24Z
2023-12-19T07:52:57Z,42.805,6.029,13.3063,4.60142,2470.693,2023-12-19T09:55:27Z
2023-12-19T07:56:00Z,42.805,6.029,13.3066,4.60146,2470.74,2023-12-19T09:58:30Z
2023-12-19T07:59:03Z,42.805,6.029,13.3069,4.60146,2470.693,2023-12-19T10:01:33Z
2023-12-19T08:02:06Z,42.805,6.029,13.3103,4.60143,2470.717,2023-12-19T10:04:36Z
2023-12-19T08:05:09Z,42.805,6.029,13.3068,4.60138,2470.74,2023-12-19T10:07:39Z
2023-12-19T08:08:12Z,42.805,6.029,13.3086,4.60137,2470.763,2023-12-19T10:10:43Z
2023-12-19T08:11:16Z,42.805,6.029,13.3066,4.60141,2470.777,2023-12-19T10:13:46Z
2023-12-19T08:14:19Z,42.805,6.029,13.3062,4.60137,2470.754,2023-12-19T10:16:49Z
2023-12-19T08:17:22Z,42.805,6.029,13.3069,4.60137,2470.763,2023-12-19T10:19:52Z
2023-12-19T08:20:25Z,42.805,6.029,13.3069,4.60141,2470.74,2023-12-19T10:22:55Z
2023-12-19T08:23:28Z,42.805,6.029,13.3066,4.60147,2470.754,2023-12-19T10:25:58Z
2023-12-19T08:26:31Z,42.805,6.029,13.3067,4.60141,2470.777,2023-12-19T10:29:01Z
2023-12-19T08:29:34Z,42.805,6.029,13.3077,4.60146,2470.74,2023-12-19T10:32:04Z
2023-12-19T08:32:37Z,42.805,6.029,13.3066,4.60142,2470.717,2023-12-19T10:35:07Z
2023-12-19T08:35:40Z,42.805,6.029,13.3067,4.60140,2470.777,2023-12-19T10:38:10Z
2023-12-19T08:38:43Z,42.805,6.029,13.3065,4.60140,2470.777,2023-12-19T10:41:13Z
2023-12-19T08:41:46Z,42.805,6.029,13.3063,4.60141,2470.787,2023-12-19T10:44:17Z
2023-12-19T08:44:50Z,42.805,6.029,13.3074,4.60138,2470.777,2023-12-19T10:47:20Z
2023-12-19T08:47:53Z,42.805,6.029,13.3063,4.60142,2470.763,2023-12-19T10:50:23Z
2023-12-19T08:50:56Z,42.805,6.029,13.3065,4.60135,2470.763,2023-12-19T10:53:26Z
2023-12-19T08:53:59Z,42.805,6.029,13.3080,4.60141,2470.777,2023-12-19T10:56:29Z
2023-12-19T08:57:02Z,42.805,6.029,13.3069,4.60137,2470.81,2023-12-19T10:59:32Z
2023-12-19T09:00:05Z,42.805,6.029,13.3069,4.60137,2470.777,2023-12-19T11:02:35Z
2023-12-19T09:03:08Z,42.805,6.029,13.3089,4.60139,2470.787,2023-12-19T11:05:38Z
2023-12-19T09:06:11Z,42.805,6.029,13.3059,4.60132,2470.787,2023-12-19T11:08:41Z
2023-12-19T09:09:14Z,42.805,6.029,13.3073,4.60127,2470.763,2023-12-19T11:11:44Z
2023-12-19T09:12:17Z,42.805,6.029,13.3061,4.60127,2470.787,2023-12-19T11:14:47Z
2023-12-19T09:15:20Z,42.805,6.029,13.3066,4.60146,2470.81,2023-12-19T11:17:50Z
2023-12-19T09:18:23Z,42.805,6.029,13.3091,4.60142,2470.787,2023-12-19T11:20:54Z
2023-12-19T09:21:27Z,42.805,6.029,13.3061,4.60135,2470.796,2023-12-19T11:23:57Z
2023-12-19T09:24:30Z,42.805,6.029,13.3064,4.60142,2470.8,2023-12-19T11:27:00Z
2023-12-19T09:27:33Z,42.805,6.029,13.3073,4.60146,2470.8,2023-12-19T11:30:03Z
2023-12-19T09:30:35Z,42.805,6.029,13.3069,4.60153,2470.787,2023-12-19T11:33:05Z
2023-12-19T09:33:38Z,42.805,6.029,13.3084,4.60144,2470.787,2023-12-19T11:36:08Z
2023-12-19T09:36:41Z,42.805,6.029,13.3083,4.60164,2470.81,2023-12-19T11:39:11Z
2023-12-19T09:39:44Z,42.805,6.029,13.3080,4.60153,2470.81,2023-12-19T11:42:14Z
2023-12-19T09:42:47Z,42.805,6.029,13.3082,4.60135,2470.824,2023-12-19T11:45:17Z
2023-12-19T09:45:50Z,42.805,6.029,13.3072,4.60135,2470.833,2023-12-19T11:48:20Z
2023-12-19T09:48:53Z,42.805,6.029,13.3066,4.60129,2470.833,2023-12-19T11:51:23Z
2023-12-19T09:51:56Z,42.805,6.029,13.3074,4.60150,2470.847,2023-12-19T11:54:26Z
2023-12-19T09:54:59Z,42.805,6.029,13.3063,4.60138,2470.857,2023-12-19T11:57:29Z
2023-12-19T09:58:02Z,42.805,6.029,13.3093,4.60147,2470.81,2023-12-19T12:00:33Z
2023-12-19T10:01:06Z,42.805,6.029,13.3062,4.60145,2470.824,2023-12-19T12:03:36Z
2023-12-19T10:04:09Z,42.805,6.029,13.3085,4.60149,2470.847,2023-12-19T12:06:39Z
2023-12-19T10:07:12Z,42.805,6.029,13.3067,4.60141,2470.81,2023-12-19T12:09:42Z
2023-12-19T10:10:15Z,42.805,6.029,13.3063,4.60132,2470.847,2023-12-19T12:12:45Z
2023-12-19T10:13:18Z,42.805,6.029,13.3068,4.60134,2470.847,2023-12-19T12:15:48Z
2023-12-19T10:16:21Z,42.805,6.029,13.3098,4.60157,2470.833,2023-12-19T12:18:51Z
2023-12-19T10:19:24Z,42.805,6.029,13.3076,4.60166,2470.857,2023-12-19T12:21:54Z
2023-12-19T10:22:27Z,42.805,6.029,13.3066,4.60164,2470.88,2023-12-19T12:24:57Z
2023-12-19T10:25:30Z,42.805,6.029,13.3050,4.60150,2470.857,2023-12-19T12:28:00Z
2023-12-19T10:28:33Z,42.805,6.029,13.3063,4.60168,2470.88,2023-12-19T12:31:03Z
2023-12-19T10:31:36Z,42.805,6.029,13.3047,4.60141,2470.88,2023-12-19T12:34:06Z
2023-12-19T10:34:39Z,42.805,6.029,13.3042,4.60147,2470.833,2023-12-19T12:37:10Z
2023-12-19T10:37:43Z,42.805,6.029,13.3034,4.60148,2470.917,2023-12-19T12:40:13Z
2023-12-19T10:40:46Z,42.805,6.029,13.3037,4.60153,2470.88,2023-12-19T12:43:16Z
2023-12-19T10:43:49Z,42.805,6.029,13.3030,4.60135,2470.857,2023-12-19T12:46:19Z
2023-12-19T10:46:52Z,42.805,6.029,13.3032,4.60137,2470.88,2023-12-19T12:49:22Z
2023-12-19T10:49:55Z,42.805,6.029,13.3034,4.60139,2470.857,2023-12-19T12:52:25Z
2023-12-19T10:52:58Z,42.805,6.029,13.3034,4.60128,2470.88,2023-12-19T12:55:28Z
2023-12-19T10:56:01Z,42.805,6.029,13.3033,4.60126,2470.904,2023-12-19T12:58:31Z
2023-12-19T10:59:04Z,42.805,6.029,13.3033,4.60131,2470.866,2023-12-19T13:01:34Z
2023-12-19T11:02:07Z,42.805,6.029,13.3033,4.60143,2470.857,2023-12-19T13:04:37Z
2023-12-19T11:05:10Z,42.805,6.029,13.3034,4.60132,2470.917,2023-12-19T13:07:40Z
2023-12-19T11:08:13Z,42.805,6.029,13.3032,4.60135,2470.894,2023-12-19T13:10:44Z
2023-12-19T11:11:17Z,42.805,6.029,13.3031,4.60126,2470.894,2023-12-19T13:13:47Z
2023-12-19T11:14:20Z,42.805,6.029,13.3030,4.60122,2470.894,2023-12-19T13:16:50Z
2023-12-19T11:17:23Z,42.805,6.029,13.3031,4.60123,2470.904,2023-12-19T13:19:53Z
2023-12-19T11:20:26Z,42.805,6.029,13.3035,4.60122,2470.904,2023-12-19T13:22:56Z
2023-12-19T11:23:29Z,42.805,6.029,13.3029,4.60116,2470.904,2023-12-19T13:25:59Z
2023-12-19T11:26:32Z,42.805,6.029,13.3030,4.60117,2470.88,2023-12-19T13:29:02Z
2023-12-19T11:29:35Z,42.805,6.029,13.3034,4.60122,2470.88,2023-12-19T13:32:05Z
2023-12-19T11:32:38Z,42.805,6.029,13.3033,4.60119,2470.88,2023-12-19T13:35:08Z
2023-12-19T11:35:41Z,42.805,6.029,13.3034,4.60115,2470.904,2023-12-19T13:38:11Z
2023-12-19T11:38:44Z,42.805,6.029,13.3031,4.60117,2470.904,2023-12-19T13:41:14Z
2023-12-19T11:41:47Z,42.805,6.029,13.3033,4.60118,2470.894,2023-12-19T13:44:17Z
2023-12-19T11:44:50Z,42.805,6.029,13.3030,4.60120,2470.927,2023-12-19T13:47:21Z
2023-12-19T11:47:54Z,42.805,6.029,13.3030,4.60114,2470.88,2023-12-19T13:50:24Z
2023-12-19T11:50:57Z,42.805,6.029,13.3034,4.60114,2470.88,2023-12-19T13:53:27Z
2023-12-19T11:54:00Z,42.805,6.029,13.3032,4.60114,2470.88,2023-12-19T13:56:30Z
2023-12-19T11:57:03Z,42.805,6.029,13.3034,4.60114,2470.917,2023-12-19T13:59:33Z
2023-12-19T12:00:06Z,42.805,6.029,13.3034,4.60121,2470.904,2023-12-19T14:02:36Z
2023-12-19T12:03:09Z,42.805,6.029,13.3032,4.60115,2470.88,2023-12-19T14:05:39Z
2023-12-19T12:06:12Z,42.805,6.029,13.3032,4.60117,2470.927,2023-12-19T14:08:42Z
2023-12-19T12:09:15Z,42.805,6.029,13.3031,4.60119,2470.917,2023-12-19T14:11:45Z
2023-12-19T12:12:18Z,42.805,6.029,13.3031,4.60115,2470.88,2023-12-19T14:14:48Z
2023-12-19T12:15:21Z,42.805,6.029,13.3031,4.60120,2470.927,2023-12-19T14:17:51Z
2023-12-19T12:18:24Z,42.805,6.029,13.3029,4.60114,2470.894,2023-12-19T14:20:55Z
2023-12-19T12:21:28Z,42.805,6.029,13.3032,4.60112,2470.904,2023-12-19T14:23:58Z
2023-12-19T12:24:31Z,42.805,6.029,13.3031,4.60112,2470.871,2023-12-19T14:27:01Z
2023-12-19T12:27:34Z,42.805,6.029,13.3031,4.60112,2470.88,2023-12-19T14:30:04Z
2023-12-19T12:30:37Z,42.805,6.029,13.3032,4.60114,2470.88,2023-12-19T14:33:07Z
2023-12-19T12:33:40Z,42.805,6.029,13.3035,4.60115,2470.904,2023-12-19T14:36:10Z
2023-12-19T12:36:43Z,42.805,6.029,13.3034,4.60117,2470.904,2023-12-19T14:39:13Z
2023-12-19T12:39:46Z,42.805,6.029,13.3033,4.60114,2470.917,2023-12-19T14:42:16Z
2023-12-19T12:42:49Z,42.805,6.029,13.3029,4.60114,2470.904,2023-12-19T14:45:19Z
2023-12-19T12:45:52Z,42.805,6.029,13.3032,4.60113,2470.917,2023-12-19T14:48:22Z
2023-12-19T12:48:55Z,42.805,6.029,13.3029,4.60111,2470.913,2023-12-19T14:51:25Z
2023-12-19T12:51:58Z,42.805,6.029,13.3031,4.60112,2470.904,2023-12-19T14:54:29Z
2023-12-19T12:55:01Z,42.805,6.029,13.3031,4.60114,2470.88,2023-12-19T14:57:32Z
2023-12-19T12:58:05Z,42.805,6.029,13.3035,4.60117,2470.88,2023-12-19T15:00:35Z
2023-12-19T13:01:08Z,42.805,6.029,13.3036,4.60113,2470.904,2023-12-19T15:03:38Z
2023-12-19T13:04:11Z,42.805,6.029,13.3036,4.60116,2470.904,2023-12-19T15:06:41Z
2023-12-19T13:07:14Z,42.805,6.029,13.3031,4.60113,2470.904,2023-12-19T15:09:44Z
2023-12-19T13:10:17Z,42.805,6.029,13.3030,4.60119,2470.904,2023-12-19T15:12:47Z
2023-12-19T13:13:20Z,42.805,6.029,13.3029,4.60120,2470.88,2023-12-19T15:15:50Z
2023-12-19T13:16:23Z,42.805,6.029,13.3033,4.60118,2470.88,2023-12-19T15:18:53Z
2023-12-19T13:19:26Z,42.805,6.029,13.3031,4.60114,2470.927,2023-12-19T15:21:56Z
2023-12-19T13:22:29Z,42.805,6.029,13.3035,4.60113,2470.857,2023-12-19T15:24:59Z
2023-12-19T13:25:32Z,42.805,6.029,13.3034,4.60114,2470.88,2023-12-19T15:28:03Z
2023-12-19T13:28:35Z,42.805,6.029,13.3032,4.60114,2470.88,2023-12-19T15:31:06Z
2023-12-19T13:31:37Z,42.805,6.029,13.3032,4.60114,2470.904,2023-12-19T15:34:07Z
2023-12-19T13:34:40Z,42.805,6.029,13.3030,4.60116,2470.88,2023-12-19T15:37:10Z
2023-12-19T13:37:43Z,42.805,6.029,13.3031,4.60112,2470.89,2023-12-19T15:40:13Z
2023-12-19T13:40:46Z,42.805,6.029,13.3033,4.60117,2470.904,2023-12-19T15:43:17Z
2023-12-19T13:43:50Z,42.805,6.029,13.3032,4.60117,2470.894,2023-12-19T15:46:20Z
2023-12-19T13:46:53Z,42.805,6.029,13.3033,4.60113,2470.88,2023-12-19T15:49:23Z
2023-12-19T13:49:56Z,42.805,6.029,13.3034,4.60111,2470.908,2023-12-19T15:52:26Z
2023-12-19T13:52:59Z,42.805,6.029,13.3033,4.60114,2470.894,2023-12-19T15:55:29Z
2023-12-19T13:56:02Z,42.805,6.029,13.3033,4.60117,2470.88,2023-12-19T15:58:32Z
2023-12-19T13:59:05Z,42.805,6.029,13.3034,4.60114,2470.904,2023-12-19T16:01:35Z
2023-12-19T14:02:08Z,42.805,6.029,13.3034,4.60113,2470.88,2023-12-19T16:04:38Z
2023-12-19T14:05:11Z,42.805,6.029,13.3031,4.60114,2470.88,2023-12-19T16:07:41Z
2023-12-19T14:08:14Z,42.805,6.029,13.3031,4.60114,2470.857,2023-12-19T16:10:44Z
2023-12-19T14:11:17Z,42.805,6.029,13.3030,4.60112,2470.88,2023-12-19T16:13:47Z
2023-12-19T14:14:20Z,42.805,6.029,13.3034,4.60116,2470.857,2023-12-19T16:16:51Z
2023-12-19T14:17:23Z,42.805,6.029,13.3034,4.60113,2470.833,2023-12-19T16:19:54Z
2023-12-19T14:20:27Z,42.805,6.029,13.3034,4.60117,2470.857,2023-12-19T16:22:57Z
2023-12-19T14:23:30Z,42.805,6.029,13.3034,4.60113,2470.88,2023-12-19T16:26:00Z
2023-12-19T14:26:33Z,42.805,6.029,13.3034,4.60117,2470.871,2023-12-19T16:29:03Z
2023-12-19T14:29:36Z,42.805,6.029,13.3034,4.60117,2470.857,2023-12-19T16:32:06Z
2023-12-19T14:32:39Z,42.805,6.029,13.3034,4.60117,2470.871,2023-12-19T16:35:09Z
2023-12-19T14:35:42Z,42.805,6.029,13.3034,4.60114,2470.857,2023-12-19T16:38:12Z
2023-12-19T14:38:45Z,42.805,6.029,13.3034,4.60114,2470.81,2023-12-19T16:41:15Z
2023-12-19T14:41:48Z,42.805,6.029,13.3029,4.60111,2470.894,2023-12-19T16:44:18Z
2023-12-19T14:44:51Z,42.805,6.029,13.3032,4.60110,2470.904,2023-12-19T16:47:21Z
2023-12-19T14:47:54Z,42.805,6.029,13.3033,4.60111,2470.857,2023-12-19T16:50:24Z
2023-12-19T14:50:57Z,42.805,6.029,13.3030,4.60117,2470.81,2023-12-19T16:53:28Z
2023-12-19T14:54:01Z,42.805,6.029,13.3031,4.60111,2470.857,2023-12-19T16:56:31Z
2023-12-19T14:57:04Z,42.805,6.029,13.3031,4.60117,2470.857,2023-12-19T16:59:34Z
2023-12-19T15:00:07Z,42.805,6.029,13.3035,4.60117,2470.833,2023-12-19T17:02:37Z